Time,TemperatureF,DewpointF,PressureIn,WindDirection,WindDirectionDegrees,WindSpeedMPH,WindSpeedGustMPH,Humidity,HourlyPrecipIn,Conditions,Clouds,dailyrainin,SolarRadiationWatts/m^2,SoftwareType,DateUTC
2013-04-24 00:00:00,34.4,24.2,30.24,NNW,331,2.0,6.0,66,0.00,,---,0.06,0.00,VWS V14.01,2013-04-24 05:00:00,
2013-04-24 00:01:00,34.4,24.6,30.24,NNW,331,3.0,4.0,67,0.00,,---,0.00,0.00,VWS V14.01,2013-04-24 05:01:00,
2013-04-24 00:06:00,34.4,24.6,30.25,NW,305,3.0,6.0,67,0.00,,---,0.00,0.00,VWS V14.01,2013-04-24 05:06:00,
2013-04-24 00:11:00,34.3,24.5,30.24,NW,305,2.0,6.0,67,0.00,,---,0.00,0.00,VWS V14.01,2013-04-24 05:11:00,
2013-04-24 00:16:00,34.3,24.9,30.24,NW,305,2.0,6.0,68,0.00,,---,0.00,0.00,VWS V14.01,2013-04-24 05:16:00,
2013-04-24 00:21:00,34.1,24.7,30.24,NW,305,3.0,6.0,68,0.00,,---,0.00,0.00,VWS V14.01,2013-04-24 05:21:00,
2013-04-24 00:26:00,34.0,24.6,30.23,NW,305,1.0,6.0,68,0.00,,---,0.00,0.00,VWS V14.01,2013-04-24 05:26:00,
2013-04-24 00:30:00,34.0,24.6,30.24,NW,305,2.0,6.0,68,0.00,,---,0.00,0.00,VWS V14.01,2013-04-24 05:30:00,
2013-04-24 00:31:00,34.0,24.6,30.24,NW,305,3.0,3.0,68,0.00,,---,0.00,0.00,VWS V14.01,2013-04-24 05:31:00,
2013-04-24 00:36:00,33.7,24.6,30.24,NW,305,3.0,5.0,69,0.00,,---,0.00,0.00,VWS V14.01,2013-04-24 05:36:00,
2013-04-24 00:41:00,33.4,24.7,30.24,NW,305,1.0,5.0,70,0.00,,---,0.00,0.00,VWS V14.01,2013-04-24 05:41:00,
2013-04-24 00:46:00,33.2,24.5,30.24,NW,305,3.0,5.0,70,0.00,,---,0.00,0.00,VWS V14.01,2013-04-24 05:46:00,
2013-04-24 00:51:00,32.9,24.5,30.24,NW,305,3.0,5.0,71,0.00,,---,0.00,0.00,VWS V14.01,2013-04-24 05:51:00,
2013-04-24 00:56:00,32.8,24.8,30.24,NW,305,2.0,5.0,72,0.00,,---,0.00,0.00,VWS V14.01,2013-04-24 05:56:00,
2013-04-24 01:00:00,32.7,24.7,30.24,NW,305,2.0,5.0,72,0.00,,---,0.00,0.00,VWS V14.01,2013-04-24 06:00:00,
2013-04-24 01:01:00,32.5,24.5,30.24,NW,305,3.0,4.0,72,0.00,,---,0.00,0.00,VWS V14.01,2013-04-24 06:01:00,
2013-04-24 01:06:00,32.4,24.4,30.24,NW,304,4.0,5.0,72,0.00,,---,0.00,0.00,VWS V14.01,2013-04-24 06:06:00,
2013-04-24 01:11:00,32.2,24.2,30.24,NW,304,3.0,5.0,72,0.00,,---,0.00,0.00,VWS V14.01,2013-04-24 06:11:00,
2013-04-24 01:16:00,32.1,24.4,30.24,NW,304,3.0,5.0,73,0.00,,---,0.00,0.00,VWS V14.01,2013-04-24 06:16:00,
2013-04-24 01:21:00,31.9,24.2,30.24,NW,304,3.0,5.0,73,0.00,,---,0.00,0.00,VWS V14.01,2013-04-24 06:21:00,
2013-04-24 01:26:00,31.8,24.1,30.24,NW,304,3.0,5.0,73,0.00,,---,0.00,0.00,VWS V14.01,2013-04-24 06:26:00,
2013-04-24 01:30:00,31.6,24.3,30.24,NW,304,2.0,5.0,74,0.00,,---,0.00,0.00,VWS V14.01,2013-04-24 06:30:00,
2013-04-24 01:31:00,31.6,24.3,30.24,NW,304,2.0,3.0,74,0.00,,---,0.00,0.00,VWS V14.01,2013-04-24 06:31:00,
2013-04-24 01:36:00,31.5,24.5,30.24,NW,304,3.0,4.0,75,0.00,,---,0.00,0.00,VWS V14.01,2013-04-24 06:36:00,
2013-04-24 01:41:00,31.2,24.2,30.24,NW,304,5.0,6.0,75,0.00,,---,0.00,0.00,VWS V14.01,2013-04-24 06:41:00,
2013-04-24 01:46:00,31.0,24.3,30.24,West,280,4.0,6.0,76,0.00,,---,0.00,0.00,VWS V14.01,2013-04-24 06:46:00,
2013-04-24 01:51:00,30.9,24.2,30.24,West,280,4.0,6.0,76,0.00,,---,0.00,0.00,VWS V14.01,2013-04-24 06:51:00,
2013-04-24 01:56:00,30.6,24.0,30.24,West,279,3.0,6.0,76,0.00,,---,0.00,0.00,VWS V14.01,2013-04-24 06:56:00,
2013-04-24 02:00:00,30.4,23.8,30.25,West,270,4.0,6.0,76,0.00,,---,0.00,0.00,VWS V14.01,2013-04-24 07:00:00,
2013-04-24 02:01:00,30.4,23.8,30.24,West,268,5.0,5.0,76,0.00,,---,0.00,0.00,VWS V14.01,2013-04-24 07:01:00,
2013-04-24 02:06:00,30.3,23.7,30.24,West,268,4.0,5.0,76,0.00,,---,0.00,0.00,VWS V14.01,2013-04-24 07:06:00,
2013-04-24 02:11:00,30.3,23.3,30.24,West,281,4.0,6.0,75,0.00,,---,0.00,0.00,VWS V14.01,2013-04-24 07:11:00,
2013-04-24 02:16:00,30.1,23.1,30.24,West,281,2.0,6.0,75,0.00,,---,0.00,0.00,VWS V14.01,2013-04-24 07:16:00,
2013-04-24 02:21:00,30.1,23.1,30.24,West,277,3.0,6.0,75,0.00,,---,0.00,0.00,VWS V14.01,2013-04-24 07:21:00,
2013-04-24 02:26:00,29.8,22.9,30.24,West,274,4.0,6.0,75,0.00,,---,0.00,0.00,VWS V14.01,2013-04-24 07:26:00,
2013-04-24 02:30:00,29.7,22.4,30.24,West,264,6.0,6.0,74,0.00,,---,0.00,0.00,VWS V14.01,2013-04-24 07:30:00,
2013-04-24 02:31:00,29.7,22.4,30.24,West,273,5.0,6.0,74,0.00,,---,0.00,0.00,VWS V14.01,2013-04-24 07:31:00,
2013-04-24 02:36:00,29.5,22.2,30.24,West,279,3.0,6.0,74,0.00,,---,0.00,0.00,VWS V14.01,2013-04-24 07:36:00,
2013-04-24 02:41:00,29.5,22.2,30.24,West,275,4.0,6.0,74,0.00,,---,0.00,0.00,VWS V14.01,2013-04-24 07:41:00,
2013-04-24 02:46:00,29.5,22.6,30.24,West,264,3.0,7.0,75,0.00,,---,0.00,0.00,VWS V14.01,2013-04-24 07:46:00,
2013-04-24 02:51:00,29.4,22.1,30.24,West,273,4.0,7.0,74,0.00,,---,0.00,0.00,VWS V14.01,2013-04-24 07:51:00,
2013-04-24 02:56:00,29.1,21.9,30.24,West,275,5.0,7.0,74,0.00,,---,0.00,0.00,VWS V14.01,2013-04-24 07:56:00,
2013-04-24 03:00:00,29.0,21.8,30.24,West,273,4.0,7.0,74,0.00,,---,0.00,0.00,VWS V14.01,2013-04-24 08:00:00,
2013-04-24 03:01:00,29.0,21.8,30.24,West,271,3.0,4.0,74,0.00,,---,0.00,0.00,VWS V14.01,2013-04-24 08:01:00,
2013-04-24 03:06:00,28.8,21.6,30.24,WNW,282,5.0,6.0,74,0.00,,---,0.00,0.00,VWS V14.01,2013-04-24 08:06:00,
2013-04-24 03:11:00,28.7,21.5,30.24,WNW,286,5.0,6.0,74,0.00,,---,0.00,0.00,VWS V14.01,2013-04-24 08:11:00,
2013-04-24 03:16:00,28.7,21.5,30.24,West,279,2.0,6.0,74,0.00,,---,0.00,0.00,VWS V14.01,2013-04-24 08:16:00,
2013-04-24 03:21:00,28.7,21.5,30.24,WNW,302,2.0,6.0,74,0.00,,---,0.00,0.00,VWS V14.01,2013-04-24 08:21:00,
2013-04-24 03:26:00,28.7,21.5,30.24,West,279,2.0,6.0,74,0.00,,---,0.00,0.00,VWS V14.01,2013-04-24 08:26:00,
2013-04-24 03:30:00,28.7,21.5,30.24,West,279,2.0,6.0,74,0.00,,---,0.00,0.00,VWS V14.01,2013-04-24 08:30:00,
2013-04-24 03:31:00,28.7,21.1,30.24,West,278,3.0,5.0,73,0.00,,---,0.00,0.00,VWS V14.01,2013-04-24 08:31:00,
2013-04-24 03:36:00,28.5,21.0,30.24,West,278,3.0,5.0,73,0.00,,---,0.00,0.00,VWS V14.01,2013-04-24 08:36:00,
2013-04-24 03:41:00,28.5,21.0,30.24,West,278,3.0,5.0,73,0.00,,---,0.00,0.00,VWS V14.01,2013-04-24 08:41:00,
2013-04-24 03:46:00,28.4,20.9,30.24,West,267,4.0,6.0,73,0.00,,---,0.00,0.00,VWS V14.01,2013-04-24 08:46:00,
2013-04-24 03:51:00,28.4,20.9,30.24,West,263,5.0,7.0,73,0.00,,---,0.00,0.00,VWS V14.01,2013-04-24 08:51:00,
2013-04-24 03:56:00,28.4,20.5,30.24,West,281,3.0,7.0,72,0.00,,---,0.00,0.00,VWS V14.01,2013-04-24 08:56:00,
2013-04-24 04:00:00,28.4,20.5,30.24,WNW,284,4.0,7.0,72,0.00,,---,0.00,0.00,VWS V14.01,2013-04-24 09:00:00,
2013-04-24 04:01:00,28.4,20.5,30.23,West,274,4.0,5.0,72,0.00,,---,0.00,0.00,VWS V14.01,2013-04-24 09:01:00,
2013-04-24 04:06:00,28.4,20.9,30.24,West,279,3.0,6.0,73,0.00,,---,0.00,0.00,VWS V14.01,2013-04-24 09:06:00,
2013-04-24 04:11:00,28.2,20.7,30.24,West,279,3.0,6.0,73,0.00,,---,0.00,0.00,VWS V14.01,2013-04-24 09:11:00,
2013-04-24 04:16:00,28.1,20.6,30.24,WNW,282,3.0,6.0,73,0.00,,---,0.00,0.00,VWS V14.01,2013-04-24 09:16:00,
2013-04-24 04:21:00,27.9,20.4,30.23,WNW,291,4.0,6.0,73,0.00,,---,0.00,0.00,VWS V14.01,2013-04-24 09:21:00,
2013-04-24 04:26:00,27.9,20.7,30.23,WNW,291,3.0,6.0,74,0.00,,---,0.00,0.00,VWS V14.01,2013-04-24 09:26:00,
2013-04-24 04:30:00,27.9,20.7,30.23,WNW,291,2.0,6.0,74,0.00,,---,0.00,0.00,VWS V14.01,2013-04-24 09:30:00,
2013-04-24 04:31:00,27.9,20.7,30.23,WNW,291,2.0,3.0,74,0.00,,---,0.00,0.00,VWS V14.01,2013-04-24 09:31:00,
2013-04-24 04:36:00,27.9,20.7,30.23,WNW,291,2.0,3.0,74,0.00,,---,0.00,0.00,VWS V14.01,2013-04-24 09:36:00,
2013-04-24 04:41:00,27.8,20.6,30.23,WNW,291,2.0,3.0,74,0.00,,---,0.00,0.00,VWS V14.01,2013-04-24 09:41:00,
2013-04-24 04:46:00,27.6,20.7,30.23,WNW,291,3.0,4.0,75,0.00,,---,0.00,0.00,VWS V14.01,2013-04-24 09:46:00,
2013-04-24 04:51:00,27.6,20.7,30.23,WNW,291,3.0,4.0,75,0.00,,---,0.00,0.00,VWS V14.01,2013-04-24 09:51:00,
2013-04-24 04:56:00,27.5,20.6,30.23,WNW,291,2.0,4.0,75,0.00,,---,0.00,0.00,VWS V14.01,2013-04-24 09:56:00,
2013-04-24 05:00:00,27.3,20.8,30.23,WNW,291,2.0,4.0,76,0.00,,---,0.00,0.00,VWS V14.01,2013-04-24 10:00:00,
2013-04-24 05:01:00,27.3,20.8,30.23,WNW,291,2.0,2.0,76,0.00,,---,0.00,0.00,VWS V14.01,2013-04-24 10:01:00,
2013-04-24 05:06:00,27.3,20.8,30.23,WNW,291,2.0,3.0,76,0.00,,---,0.00,0.00,VWS V14.01,2013-04-24 10:06:00,
2013-04-24 05:11:00,27.2,20.6,30.23,WNW,291,0.0,3.0,76,0.00,,---,0.00,0.00,VWS V14.01,2013-04-24 10:11:00,
2013-04-24 05:16:00,27.2,20.6,30.23,WNW,291,1.0,3.0,76,0.00,,---,0.00,0.00,VWS V14.01,2013-04-24 10:16:00,
2013-04-24 05:21:00,27.2,21.0,30.23,WNW,291,1.0,3.0,77,0.00,,---,0.00,0.00,VWS V14.01,2013-04-24 10:21:00,
2013-04-24 05:26:00,27.0,20.8,30.23,WNW,291,2.0,3.0,77,0.00,,---,0.00,0.00,VWS V14.01,2013-04-24 10:26:00,
2013-04-24 05:30:00,26.9,20.7,30.23,WNW,291,1.0,3.0,77,0.00,,---,0.00,0.00,VWS V14.01,2013-04-24 10:30:00,
2013-04-24 05:31:00,26.9,20.7,30.23,WNW,291,0.0,1.0,77,0.00,,---,0.00,0.00,VWS V14.01,2013-04-24 10:31:00,
2013-04-24 05:36:00,26.9,21.0,30.23,WNW,291,0.0,1.0,78,0.00,,---,0.00,0.00,VWS V14.01,2013-04-24 10:36:00,
2013-04-24 05:41:00,26.9,21.0,30.23,WNW,291,0.0,1.0,78,0.00,,---,0.00,0.00,VWS V14.01,2013-04-24 10:41:00,
2013-04-24 05:46:00,26.7,20.8,30.23,WNW,291,2.0,2.0,78,0.00,,---,0.00,0.00,VWS V14.01,2013-04-24 10:46:00,
2013-04-24 05:51:00,26.6,20.7,30.24,WNW,291,0.0,2.0,78,0.00,,---,0.00,0.00,VWS V14.01,2013-04-24 10:51:00,
2013-04-24 05:56:00,26.4,20.5,30.23,WNW,291,0.0,2.0,78,0.00,,---,0.00,0.00,VWS V14.01,2013-04-24 10:56:00,
2013-04-24 06:00:00,26.4,20.5,30.23,WNW,291,1.0,2.0,78,0.00,,---,0.00,0.00,VWS V14.01,2013-04-24 11:00:00,
2013-04-24 06:01:00,26.4,20.5,30.23,WNW,291,1.0,1.0,78,0.00,,---,0.00,0.00,VWS V14.01,2013-04-24 11:01:00,
2013-04-24 06:06:00,26.7,20.8,30.24,WNW,291,1.0,2.0,78,0.00,,---,0.00,0.00,VWS V14.01,2013-04-24 11:06:00,
2013-04-24 06:11:00,26.6,20.4,30.24,WNW,291,2.0,2.0,77,0.00,,---,0.00,0.00,VWS V14.01,2013-04-24 11:11:00,
2013-04-24 06:16:00,26.6,20.7,30.24,WNW,291,2.0,2.0,78,0.00,,---,0.00,0.00,VWS V14.01,2013-04-24 11:16:00,
2013-04-24 06:21:00,26.4,20.5,30.24,WNW,291,2.0,3.0,78,0.00,,---,0.00,0.00,VWS V14.01,2013-04-24 11:21:00,
2013-04-24 06:26:00,26.4,20.8,30.24,WNW,291,2.0,3.0,79,0.00,,---,0.00,0.00,VWS V14.01,2013-04-24 11:26:00,
2013-04-24 06:30:00,26.1,20.5,30.24,WNW,288,3.0,3.0,79,0.00,,---,0.00,0.00,VWS V14.01,2013-04-24 11:30:00,
2013-04-24 06:31:00,26.1,20.5,30.24,WNW,284,3.0,4.0,79,0.00,,---,0.00,0.00,VWS V14.01,2013-04-24 11:31:00,
2013-04-24 06:36:00,25.8,20.5,30.24,WNW,283,3.0,4.0,80,0.00,,---,0.00,0.00,VWS V14.01,2013-04-24 11:36:00,
2013-04-24 06:41:00,25.6,20.6,30.24,West,281,3.0,4.0,81,0.00,,---,0.00,5.00,VWS V14.01,2013-04-24 11:41:00,
2013-04-24 06:46:00,25.6,20.9,30.24,West,281,2.0,4.0,82,0.00,,---,0.00,11.00,VWS V14.01,2013-04-24 11:46:00,
2013-04-24 06:51:00,25.6,20.9,30.24,West,281,2.0,4.0,82,0.00,,---,0.00,14.00,VWS V14.01,2013-04-24 11:51:00,
2013-04-24 06:56:00,25.7,21.0,30.23,West,281,1.0,4.0,82,0.00,,---,0.00,21.00,VWS V14.01,2013-04-24 11:56:00,
2013-04-24 07:00:00,25.7,21.0,30.23,West,281,2.0,4.0,82,0.00,,---,0.00,25.00,VWS V14.01,2013-04-24 12:00:00,
2013-04-24 07:01:00,25.7,21.0,30.24,West,281,2.0,2.0,82,0.00,,---,0.00,28.00,VWS V14.01,2013-04-24 12:01:00,
2013-04-24 07:06:00,25.8,21.1,30.24,West,281,3.0,3.0,82,0.00,,---,0.00,40.00,VWS V14.01,2013-04-24 12:06:00,
2013-04-24 07:11:00,26.0,21.3,30.24,West,280,1.0,4.0,82,0.00,,---,0.00,49.00,VWS V14.01,2013-04-24 12:11:00,
2013-04-24 07:16:00,26.1,21.4,30.24,SW,224,3.0,5.0,82,0.00,,---,0.00,58.00,VWS V14.01,2013-04-24 12:16:00,
2013-04-24 07:21:00,26.3,21.6,30.24,SW,223,2.0,5.0,82,0.00,,---,0.00,69.00,VWS V14.01,2013-04-24 12:21:00,
2013-04-24 07:26:00,26.7,21.7,30.24,SW,216,2.0,6.0,81,0.00,,---,0.00,79.00,VWS V14.01,2013-04-24 12:26:00,
2013-04-24 07:30:00,26.9,21.6,30.24,SSW,196,2.0,6.0,80,0.00,,---,0.00,90.00,VWS V14.01,2013-04-24 12:30:00,
2013-04-24 07:31:00,27.0,21.4,30.24,SSW,192,4.0,6.0,79,0.00,,---,0.00,95.00,VWS V14.01,2013-04-24 12:31:00,
2013-04-24 07:36:00,27.2,21.6,30.24,SSW,192,3.0,6.0,79,0.00,,---,0.00,109.00,VWS V14.01,2013-04-24 12:36:00,
2013-04-24 07:41:00,27.5,21.5,30.25,SSW,205,4.0,6.0,78,0.00,,---,0.00,128.00,VWS V14.01,2013-04-24 12:41:00,
2013-04-24 07:46:00,27.5,21.2,30.24,SSW,205,4.0,7.0,77,0.00,,---,0.00,149.00,VWS V14.01,2013-04-24 12:46:00,
2013-04-24 07:51:00,27.6,21.4,30.24,SSW,200,5.0,7.0,77,0.00,,---,0.00,169.00,VWS V14.01,2013-04-24 12:51:00,
2013-04-24 07:56:00,27.9,21.6,30.24,SSW,202,4.0,7.0,77,0.00,,---,0.00,188.00,VWS V14.01,2013-04-24 12:56:00,
2013-04-24 08:00:00,28.4,21.8,30.24,SSW,202,2.0,7.0,76,0.00,,---,0.00,193.00,VWS V14.01,2013-04-24 13:00:00,
2013-04-24 08:02:00,28.7,22.1,30.25,SSW,202,3.0,3.0,76,0.00,,---,0.00,202.00,VWS V14.01,2013-04-24 13:02:00,
2013-04-24 08:07:00,29.3,22.1,30.24,SSW,202,2.0,3.0,74,0.00,,---,0.00,218.00,VWS V14.01,2013-04-24 13:07:00,
2013-04-24 08:12:00,29.5,21.9,30.24,SSW,202,1.0,4.0,73,0.00,,---,0.00,236.00,VWS V14.01,2013-04-24 13:12:00,
2013-04-24 08:17:00,30.0,22.4,30.24,SSW,202,2.0,4.0,73,0.00,,---,0.00,251.00,VWS V14.01,2013-04-24 13:17:00,
2013-04-24 08:22:00,30.3,22.4,30.24,SW,218,4.0,4.0,72,0.00,,---,0.00,267.00,VWS V14.01,2013-04-24 13:22:00,
2013-04-24 08:27:00,30.3,22.4,30.24,SW,217,3.0,5.0,72,0.00,,---,0.00,281.00,VWS V14.01,2013-04-24 13:27:00,
2013-04-24 08:30:00,30.4,22.5,30.24,SW,215,3.0,5.0,72,0.00,,---,0.00,294.00,VWS V14.01,2013-04-24 13:30:00,
2013-04-24 08:32:00,30.6,22.7,30.24,SW,215,2.0,3.0,72,0.00,,---,0.00,297.00,VWS V14.01,2013-04-24 13:32:00,
2013-04-24 08:37:00,31.2,23.2,30.24,SW,215,2.0,3.0,72,0.00,,---,0.00,315.00,VWS V14.01,2013-04-24 13:37:00,
2013-04-24 08:42:00,31.5,23.2,30.24,SW,215,0.0,4.0,71,0.00,,---,0.00,330.00,VWS V14.01,2013-04-24 13:42:00,
2013-04-24 08:47:00,32.1,23.4,30.24,SW,215,0.0,4.0,70,0.00,,---,0.00,348.00,VWS V14.01,2013-04-24 13:47:00,
2013-04-24 08:52:00,32.4,24.1,30.23,SW,215,0.0,4.0,71,0.00,,---,0.00,364.00,VWS V14.01,2013-04-24 13:52:00,
2013-04-24 08:57:00,33.4,24.0,30.23,SW,215,0.0,4.0,68,0.00,,---,0.00,380.00,VWS V14.01,2013-04-24 13:57:00,
2013-04-24 09:00:00,34.1,24.3,30.23,SW,215,1.0,4.0,67,0.00,,---,0.00,390.00,VWS V14.01,2013-04-24 14:00:00,
2013-04-24 09:02:00,34.7,24.5,30.23,SW,215,0.0,1.0,66,0.00,,---,0.00,397.00,VWS V14.01,2013-04-24 14:02:00,
2013-04-24 09:07:00,35.9,24.5,30.23,SW,215,1.0,2.0,63,0.00,,---,0.00,411.00,VWS V14.01,2013-04-24 14:07:00,
2013-04-24 09:12:00,35.6,23.9,30.23,SW,215,4.0,5.0,62,0.00,,---,0.00,431.00,VWS V14.01,2013-04-24 14:12:00,
2013-04-24 09:17:00,34.6,24.4,30.24,SW,227,0.0,6.0,66,0.00,,---,0.00,445.00,VWS V14.01,2013-04-24 14:17:00,
2013-04-24 09:22:00,34.6,24.4,30.24,WSW,244,6.0,7.0,66,0.00,,---,0.00,461.00,VWS V14.01,2013-04-24 14:22:00,
2013-04-24 09:27:00,34.0,25.3,30.24,SW,217,5.0,8.0,70,0.00,,---,0.00,476.00,VWS V14.01,2013-04-24 14:27:00,
2013-04-24 09:30:00,34.0,24.9,30.24,SW,221,3.0,8.0,69,0.00,,---,0.00,485.00,VWS V14.01,2013-04-24 14:30:00,
2013-04-24 09:32:00,34.1,25.0,30.24,SSW,212,3.0,6.0,69,0.00,,---,0.00,490.00,VWS V14.01,2013-04-24 14:32:00,
2013-04-24 09:37:00,35.2,26.1,30.24,SSW,209,1.0,6.0,69,0.00,,---,0.00,506.00,VWS V14.01,2013-04-24 14:37:00,
2013-04-24 09:42:00,36.3,26.4,30.24,SSW,208,4.0,6.0,67,0.00,,---,0.00,522.00,VWS V14.01,2013-04-24 14:42:00,
2013-04-24 09:47:00,36.6,25.2,30.24,SW,225,1.0,6.0,63,0.00,,---,0.00,538.00,VWS V14.01,2013-04-24 14:47:00,
2013-04-24 09:52:00,37.0,27.1,30.24,SW,217,6.0,6.0,67,0.00,,---,0.00,554.00,VWS V14.01,2013-04-24 14:52:00,
2013-04-24 09:57:00,37.6,27.6,30.24,SSW,209,2.0,6.0,67,0.00,,---,0.00,564.00,VWS V14.01,2013-04-24 14:57:00,
2013-04-24 10:00:00,38.3,28.0,30.24,South,188,3.0,7.0,66,0.00,,---,0.00,575.00,VWS V14.01,2013-04-24 15:00:00,
2013-04-24 10:02:00,38.6,26.7,30.24,SSW,209,4.0,8.0,62,0.01,,---,0.01,582.00,VWS V14.01,2013-04-24 15:02:00,
2013-04-24 10:09:00,38.9,27.8,30.24,South,185,7.0,8.0,64,0.01,,---,0.01,603.00,VWS V14.01,2013-04-24 15:09:00,
2013-04-24 10:14:00,39.2,26.5,30.24,SSW,200,5.0,10.0,60,0.01,,---,0.01,615.00,VWS V14.01,2013-04-24 15:14:00,
2013-04-24 10:19:00,39.5,26.4,30.25,SSW,194,7.0,10.0,59,0.01,,---,0.01,626.00,VWS V14.01,2013-04-24 15:19:00,
2013-04-24 10:24:00,39.5,26.0,30.25,SW,214,6.0,10.0,58,0.01,,---,0.01,643.00,VWS V14.01,2013-04-24 15:24:00,
2013-04-24 10:29:00,40.1,27.4,30.25,SSE,150,8.0,10.0,60,0.01,,---,0.01,657.00,VWS V14.01,2013-04-24 15:29:00,
2013-04-24 10:30:00,40.1,27.4,30.25,South,169,6.0,10.0,60,0.01,,---,0.01,659.00,VWS V14.01,2013-04-24 15:30:00,
2013-04-24 10:34:00,40.3,26.7,30.25,South,190,3.0,10.0,58,0.01,,---,0.01,671.00,VWS V14.01,2013-04-24 15:34:00,
2013-04-24 10:39:00,41.2,26.7,30.25,SSW,202,8.0,12.0,56,0.01,,---,0.01,682.00,VWS V14.01,2013-04-24 15:39:00,
2013-04-24 10:44:00,41.1,27.0,30.25,SW,236,3.0,12.0,57,0.01,,---,0.01,694.00,VWS V14.01,2013-04-24 15:44:00,
2013-04-24 10:49:00,40.9,26.4,30.25,SSW,209,4.0,12.0,56,0.01,,---,0.01,710.00,VWS V14.01,2013-04-24 15:49:00,
2013-04-24 10:54:00,41.1,27.5,30.25,SSW,205,5.0,12.0,58,0.01,,---,0.01,721.00,VWS V14.01,2013-04-24 15:54:00,
2013-04-24 10:59:00,41.6,27.5,30.25,SSW,205,7.0,12.0,57,0.01,,---,0.01,733.00,VWS V14.01,2013-04-24 15:59:00,
2013-04-24 11:00:00,41.6,27.5,30.25,SSW,205,7.0,12.0,57,0.01,,---,0.01,733.00,VWS V14.01,2013-04-24 16:00:00,
2013-04-24 11:04:00,42.1,28.4,30.25,SW,227,8.0,12.0,58,0.01,,---,0.01,745.00,VWS V14.01,2013-04-24 16:04:00,
2013-04-24 11:10:00,42.3,28.6,30.25,South,191,7.0,12.0,58,0.02,,---,0.02,754.00,VWS V14.01,2013-04-24 16:10:00,
2013-04-24 11:15:00,42.9,27.9,30.25,SSW,193,9.0,12.0,55,0.02,,---,0.02,766.00,VWS V14.01,2013-04-24 16:15:00,
2013-04-24 11:20:00,42.6,26.2,30.25,SSW,195,10.0,12.0,52,0.02,,---,0.02,777.00,VWS V14.01,2013-04-24 16:20:00,
2013-04-24 11:25:00,42.9,27.0,30.25,SSW,198,3.0,12.0,53,0.02,,---,0.02,788.00,VWS V14.01,2013-04-24 16:25:00,
2013-04-24 11:30:00,43.6,28.1,30.25,West,261,4.0,12.0,54,0.02,,---,0.02,798.00,VWS V14.01,2013-04-24 16:30:00,
2013-04-24 11:35:00,44.1,27.1,30.25,SSW,200,8.0,11.0,51,0.01,,---,0.02,807.00,VWS V14.01,2013-04-24 16:35:00,
2013-04-24 11:40:00,44.3,27.8,30.25,WSW,251,2.0,11.0,52,0.01,,---,0.02,816.00,VWS V14.01,2013-04-24 16:40:00,
2013-04-24 11:45:00,44.6,28.5,30.25,South,180,6.0,13.0,53,0.01,,---,0.02,823.00,VWS V14.01,2013-04-24 16:45:00,
2013-04-24 11:50:00,44.9,29.7,30.25,WSW,250,4.0,13.0,55,0.01,,---,0.02,830.00,VWS V14.01,2013-04-24 16:50:00,
2013-04-24 11:55:00,45.4,24.8,30.25,SW,236,7.0,15.0,44,0.01,,---,0.02,856.00,VWS V14.01,2013-04-24 16:55:00,
2013-04-24 12:00:00,45.4,25.3,30.25,SW,219,8.0,8.0,45,0.01,,---,0.02,858.00,VWS V14.01,2013-04-24 17:00:00,
2013-04-24 12:05:00,45.2,26.7,30.25,SSW,198,8.0,16.0,48,0.01,,---,0.02,861.00,VWS V14.01,2013-04-24 17:05:00,
2013-04-24 12:10:00,46.0,27.4,30.25,West,265,6.0,16.0,48,0.01,,---,0.02,867.00,VWS V14.01,2013-04-24 17:10:00,
2013-04-24 12:15:00,46.5,27.9,30.25,SW,219,10.0,16.0,48,0.01,,---,0.02,856.00,VWS V14.01,2013-04-24 17:15:00,
2013-04-24 12:20:00,46.7,29.5,30.25,SSW,195,7.0,16.0,51,0.01,,---,0.02,888.00,VWS V14.01,2013-04-24 17:20:00,
2013-04-24 12:25:00,47.3,28.1,30.25,WSW,246,10.0,16.0,47,0.01,,---,0.02,643.00,VWS V14.01,2013-04-24 17:25:00,
2013-04-24 12:30:00,46.8,28.2,30.24,SW,217,13.0,13.0,48,0.00,,---,0.02,777.00,VWS V14.01,2013-04-24 17:30:00,
2013-04-24 12:35:00,47.0,28.3,30.24,SSE,167,7.0,17.0,48,0.00,,---,0.02,919.00,VWS V14.01,2013-04-24 17:35:00,
2013-04-24 12:40:00,47.3,29.1,30.24,SW,236,6.0,17.0,49,0.00,,---,0.02,874.00,VWS V14.01,2013-04-24 17:40:00,
2013-04-24 12:45:00,47.7,28.0,30.24,WSW,237,12.0,18.0,46,0.00,,---,0.02,823.00,VWS V14.01,2013-04-24 17:45:00,
2013-04-24 12:50:00,48.3,29.5,30.24,SW,220,10.0,18.0,48,0.00,,---,0.02,664.00,VWS V14.01,2013-04-24 17:50:00,
2013-04-24 12:55:00,48.6,28.8,30.24,SW,225,4.0,18.0,46,0.00,,---,0.02,814.00,VWS V14.01,2013-04-24 17:55:00,
2013-04-24 13:00:00,48.9,28.5,30.23,SW,222,11.0,12.0,45,0.00,,---,0.02,777.00,VWS V14.01,2013-04-24 18:00:00,
2013-04-24 13:05:00,49.1,27.0,30.23,WNW,291,8.0,16.0,42,0.00,,---,0.02,861.00,VWS V14.01,2013-04-24 18:05:00,
2013-04-24 13:10:00,49.4,27.3,30.23,WSW,246,11.0,16.0,42,0.00,,---,0.02,749.00,VWS V14.01,2013-04-24 18:10:00,
2013-04-24 13:15:00,49.8,28.2,30.22,West,275,5.0,16.0,43,0.00,,---,0.02,870.00,VWS V14.01,2013-04-24 18:15:00,
2013-04-24 13:20:00,50.2,28.0,30.22,SW,236,14.0,20.0,42,0.00,,---,0.02,846.00,VWS V14.01,2013-04-24 18:20:00,
2013-04-24 13:25:00,50.1,28.5,30.22,West,268,3.0,20.0,43,0.00,,---,0.02,766.00,VWS V14.01,2013-04-24 18:25:00,
2013-04-24 13:30:00,50.7,29.0,30.22,SSW,209,9.0,9.0,43,0.00,,---,0.02,905.00,VWS V14.01,2013-04-24 18:30:00,
2013-04-24 13:35:00,51.3,28.4,30.21,SW,236,17.0,20.0,41,0.00,,---,0.02,754.00,VWS V14.01,2013-04-24 18:35:00,
2013-04-24 13:40:00,51.0,25.0,30.22,WNW,282,10.0,20.0,36,0.00,,---,0.02,740.00,VWS V14.01,2013-04-24 18:40:00,
2013-04-24 13:45:00,51.6,25.5,30.22,WSW,254,8.0,20.0,36,0.00,,---,0.02,737.00,VWS V14.01,2013-04-24 18:45:00,
2013-04-24 13:50:00,52.2,26.1,30.21,WSW,252,9.0,20.0,36,0.00,,---,0.02,513.00,VWS V14.01,2013-04-24 18:50:00,
2013-04-24 13:55:00,52.5,27.6,30.21,West,277,10.0,20.0,38,0.00,,---,0.02,376.00,VWS V14.01,2013-04-24 18:55:00,
2013-04-24 14:00:00,52.2,26.1,30.21,West,261,6.0,9.0,36,0.00,,---,0.02,339.00,VWS V14.01,2013-04-24 19:00:00,
2013-04-24 14:05:00,52.3,25.5,30.21,SW,225,4.0,16.0,35,0.00,,---,0.02,306.00,VWS V14.01,2013-04-24 19:05:00,
2013-04-24 14:10:00,52.6,27.1,30.21,SW,228,11.0,20.0,37,0.00,,---,0.02,281.00,VWS V14.01,2013-04-24 19:10:00,
2013-04-24 14:15:00,52.8,26.6,30.21,SSW,212,9.0,20.0,36,0.00,,---,0.02,262.00,VWS V14.01,2013-04-24 19:15:00,
2013-04-24 14:20:00,53.2,27.6,30.21,West,265,9.0,20.0,37,0.00,,---,0.02,220.00,VWS V14.01,2013-04-24 19:20:00,
2013-04-24 14:25:00,53.8,23.9,30.20,West,278,9.0,20.0,31,0.00,,---,0.02,188.00,VWS V14.01,2013-04-24 19:25:00,
2013-04-24 14:30:00,53.5,25.8,30.20,West,265,6.0,7.0,34,0.00,,---,0.02,171.00,VWS V14.01,2013-04-24 19:30:00,
2013-04-24 14:35:00,53.3,22.7,30.20,WNW,293,13.0,18.0,30,0.00,,---,0.02,149.00,VWS V14.01,2013-04-24 19:35:00,
2013-04-24 14:40:00,53.5,24.4,30.20,West,266,8.0,18.0,32,0.00,,---,0.02,144.00,VWS V14.01,2013-04-24 19:40:00,
2013-04-24 14:45:00,54.4,22.8,30.20,WSW,240,12.0,18.0,29,0.00,,---,0.02,137.00,VWS V14.01,2013-04-24 19:45:00,
2013-04-24 14:50:00,54.4,22.0,30.20,WNW,300,9.0,18.0,28,0.00,,---,0.02,139.00,VWS V14.01,2013-04-24 19:50:00,
2013-04-24 14:55:00,53.8,22.3,30.20,West,263,15.0,19.0,29,0.00,,---,0.02,132.00,VWS V14.01,2013-04-24 19:55:00,
2013-04-24 15:00:00,54.2,21.0,30.19,WNW,294,4.0,9.0,27,0.00,,---,0.02,118.00,VWS V14.01,2013-04-24 20:00:00,
2013-04-24 15:05:00,54.2,21.0,30.19,WSW,247,9.0,18.0,27,0.00,,---,0.02,116.00,VWS V14.01,2013-04-24 20:05:00,
2013-04-24 15:10:00,55.1,20.9,30.19,SW,221,12.0,18.0,26,0.00,,---,0.02,104.00,VWS V14.01,2013-04-24 20:10:00,
2013-04-24 15:15:00,54.8,21.5,30.19,West,268,5.0,18.0,27,0.00,,---,0.02,107.00,VWS V14.01,2013-04-24 20:15:00,
2013-04-24 15:20:00,55.3,21.0,30.19,WNW,284,6.0,18.0,26,0.00,,---,0.02,116.00,VWS V14.01,2013-04-24 20:20:00,
2013-04-24 15:25:00,55.3,21.0,30.19,West,267,9.0,18.0,26,0.00,,---,0.02,134.00,VWS V14.01,2013-04-24 20:25:00,
2013-04-24 15:30:00,54.8,18.7,30.18,SW,225,9.0,12.0,24,0.00,,---,0.02,223.00,VWS V14.01,2013-04-24 20:30:00,
2013-04-24 15:35:00,55.1,19.0,30.18,SW,217,8.0,18.0,24,0.00,,---,0.02,480.00,VWS V14.01,2013-04-24 20:35:00,
2013-04-24 15:40:00,56.2,19.9,30.18,SW,214,6.0,18.0,24,0.00,,---,0.02,700.00,VWS V14.01,2013-04-24 20:40:00,
2013-04-24 15:45:00,56.0,20.7,30.18,WSW,246,12.0,18.0,25,0.00,,---,0.02,647.00,VWS V14.01,2013-04-24 20:45:00,
2013-04-24 15:50:00,55.7,22.3,30.17,SW,234,8.0,18.0,27,0.00,,---,0.02,649.00,VWS V14.01,2013-04-24 20:50:00,
2013-04-24 15:55:00,56.0,23.4,30.17,SW,229,14.0,19.0,28,0.00,,---,0.02,513.00,VWS V14.01,2013-04-24 20:55:00,
2013-04-24 16:00:00,56.2,21.8,30.17,SW,225,12.0,19.0,26,0.00,,---,0.02,619.00,VWS V14.01,2013-04-24 21:00:00,
2013-04-24 16:01:00,56.2,21.8,30.17,WSW,244,11.0,18.0,26,0.00,,---,0.02,555.00,VWS V14.01,2013-04-24 21:01:00,
2013-04-24 16:06:00,56.3,22.8,30.16,SW,226,4.0,18.0,27,0.00,,---,0.02,624.00,VWS V14.01,2013-04-24 21:06:00,
2013-04-24 16:11:00,56.7,22.2,30.16,SSW,211,7.0,18.0,26,0.00,,---,0.02,522.00,VWS V14.01,2013-04-24 21:11:00,
2013-04-24 16:16:00,56.7,21.3,30.16,WSW,248,12.0,22.0,25,0.00,,---,0.02,555.00,VWS V14.01,2013-04-24 21:16:00,
2013-04-24 16:21:00,56.7,22.2,30.16,WNW,285,1.0,22.0,26,0.00,,---,0.02,506.00,VWS V14.01,2013-04-24 21:21:00,
2013-04-24 16:26:00,56.9,22.4,30.16,SW,236,10.0,22.0,26,0.00,,---,0.02,476.00,VWS V14.01,2013-04-24 21:26:00,
2013-04-24 16:30:00,57.2,22.6,30.15,SW,234,14.0,22.0,26,0.00,,---,0.02,450.00,VWS V14.01,2013-04-24 21:30:00,
2013-04-24 16:31:00,57.2,21.7,30.15,West,280,14.0,14.0,25,0.00,,---,0.02,698.00,VWS V14.01,2013-04-24 21:31:00,
2013-04-24 16:36:00,57.5,22.9,30.15,West,259,7.0,18.0,26,0.00,,---,0.02,547.00,VWS V14.01,2013-04-24 21:36:00,
2013-04-24 16:41:00,57.8,22.2,30.15,West,265,9.0,19.0,25,0.00,,---,0.02,381.00,VWS V14.01,2013-04-24 21:41:00,
2013-04-24 16:46:00,57.6,22.1,30.15,SSW,205,13.0,19.0,25,0.00,,---,0.02,485.00,VWS V14.01,2013-04-24 21:46:00,
2013-04-24 16:51:00,57.5,22.9,30.15,WSW,255,6.0,19.0,26,0.00,,---,0.02,580.00,VWS V14.01,2013-04-24 21:51:00,
2013-04-24 16:56:00,57.6,23.0,30.15,WNW,296,7.0,20.0,26,0.00,,---,0.02,485.00,VWS V14.01,2013-04-24 21:56:00,
2013-04-24 17:00:00,57.5,22.9,30.14,WNW,290,6.0,20.0,26,0.00,,---,0.02,469.00,VWS V14.01,2013-04-24 22:00:00,
2013-04-24 17:01:00,57.6,23.9,30.14,West,272,10.0,17.0,27,0.00,,---,0.02,471.00,VWS V14.01,2013-04-24 22:01:00,
2013-04-24 17:06:00,57.8,24.1,30.14,WNW,284,13.0,17.0,27,0.00,,---,0.02,369.00,VWS V14.01,2013-04-24 22:06:00,
2013-04-24 17:11:00,58.0,23.3,30.14,West,260,9.0,18.0,26,0.00,,---,0.02,408.00,VWS V14.01,2013-04-24 22:11:00,
2013-04-24 17:16:00,58.3,24.5,30.14,West,277,13.0,18.0,27,0.00,,---,0.02,566.00,VWS V14.01,2013-04-24 22:16:00,
2013-04-24 17:21:00,58.6,23.8,30.14,WSW,250,3.0,18.0,26,0.00,,---,0.02,496.00,VWS V14.01,2013-04-24 22:21:00,
2013-04-24 17:26:00,58.4,23.7,30.13,West,264,9.0,18.0,26,0.00,,---,0.02,392.00,VWS V14.01,2013-04-24 22:26:00,
2013-04-24 17:30:00,58.7,24.8,30.13,West,273,9.0,18.0,27,0.00,,---,0.02,559.00,VWS V14.01,2013-04-24 22:30:00,
2013-04-24 17:31:00,58.9,25.9,30.13,West,281,9.0,20.0,28,0.00,,---,0.02,547.00,VWS V14.01,2013-04-24 22:31:00,
2013-04-24 17:36:00,59.0,25.1,30.13,West,267,14.0,20.0,27,0.00,,---,0.02,513.00,VWS V14.01,2013-04-24 22:36:00,
2013-04-24 17:41:00,59.0,23.2,30.12,WSW,240,16.0,20.0,25,0.00,,---,0.02,492.00,VWS V14.01,2013-04-24 22:41:00,
2013-04-24 17:46:00,59.0,25.1,30.12,WSW,242,12.0,23.0,27,0.00,,---,0.02,471.00,VWS V14.01,2013-04-24 22:46:00,
2013-04-24 17:51:00,59.2,25.3,30.12,WNW,282,9.0,23.0,27,0.00,,---,0.02,457.00,VWS V14.01,2013-04-24 22:51:00,
2013-04-24 17:56:00,59.5,25.5,30.12,SSE,158,4.0,23.0,27,0.00,,---,0.02,438.00,VWS V14.01,2013-04-24 22:56:00,
2013-04-24 18:00:00,59.8,25.8,30.12,South,186,8.0,23.0,27,0.00,,---,0.02,425.00,VWS V14.01,2013-04-24 23:00:00,
2013-04-24 18:01:00,59.9,26.7,30.12,SSE,150,5.0,10.0,28,0.00,,---,0.02,418.00,VWS V14.01,2013-04-24 23:01:00,
2013-04-24 18:06:00,60.1,26.9,30.12,SW,231,9.0,14.0,28,0.00,,---,0.02,404.00,VWS V14.01,2013-04-24 23:06:00,
2013-04-24 18:11:00,59.5,26.4,30.12,WSW,244,6.0,19.0,28,0.00,,---,0.02,387.00,VWS V14.01,2013-04-24 23:11:00,
2013-04-24 18:16:00,59.2,26.1,30.12,WSW,241,16.0,21.0,28,0.00,,---,0.02,371.00,VWS V14.01,2013-04-24 23:16:00,
2013-04-24 18:21:00,59.0,26.0,30.11,SSW,209,11.0,21.0,28,0.00,,---,0.02,352.00,VWS V14.01,2013-04-24 23:21:00,
2013-04-24 18:26:00,58.9,26.7,30.11,South,188,7.0,21.0,29,0.00,,---,0.02,339.00,VWS V14.01,2013-04-24 23:26:00,
2013-04-24 18:30:00,58.6,26.5,30.11,SW,224,7.0,21.0,29,0.00,,---,0.02,327.00,VWS V14.01,2013-04-24 23:30:00,
2013-04-24 18:31:00,58.7,26.5,30.11,SSW,207,15.0,17.0,29,0.00,,---,0.02,322.00,VWS V14.01,2013-04-24 23:31:00,
2013-04-24 18:36:00,58.7,26.5,30.11,SSW,202,15.0,19.0,29,0.00,,---,0.02,304.00,VWS V14.01,2013-04-24 23:36:00,
2013-04-24 18:41:00,58.7,27.4,30.11,SW,227,13.0,21.0,30,0.00,,---,0.02,288.00,VWS V14.01,2013-04-24 23:41:00,
2013-04-24 18:46:00,58.9,27.5,30.11,SSW,200,15.0,21.0,30,0.00,,---,0.02,271.00,VWS V14.01,2013-04-24 23:46:00,
2013-04-24 18:51:00,58.9,27.5,30.11,SSW,201,9.0,22.0,30,0.00,,---,0.02,253.00,VWS V14.01,2013-04-24 23:51:00,
2013-04-24 18:56:00,58.9,28.3,30.11,SW,233,10.0,22.0,31,0.00,,---,0.02,237.00,VWS V14.01,2013-04-24 23:56:00,
2013-04-24 19:00:00,58.9,28.3,30.11,SW,224,16.0,22.0,31,0.00,,---,0.02,227.00,VWS V14.01,2013-04-25 00:00:00,
2013-04-24 19:01:00,58.9,28.3,30.11,WSW,238,10.0,14.0,31,0.00,,---,0.02,221.00,VWS V14.01,2013-04-25 00:01:00,
2013-04-24 19:06:00,58.7,28.2,30.11,South,186,11.0,18.0,31,0.00,,---,0.02,207.00,VWS V14.01,2013-04-25 00:06:00,
2013-04-24 19:11:00,58.7,28.9,30.11,SW,225,10.0,18.0,32,0.00,,---,0.02,188.00,VWS V14.01,2013-04-25 00:11:00,
2013-04-24 19:16:00,58.7,28.9,30.10,SW,221,9.0,18.0,32,0.00,,---,0.02,167.00,VWS V14.01,2013-04-25 00:16:00,
2013-04-24 19:21:00,58.7,30.4,30.10,SSW,200,10.0,18.0,34,0.00,,---,0.02,148.00,VWS V14.01,2013-04-25 00:21:00,
2013-04-24 19:26:00,58.6,30.3,30.10,SSW,202,9.0,18.0,34,0.00,,---,0.02,111.00,VWS V14.01,2013-04-25 00:26:00,
2013-04-24 19:30:00,58.4,30.2,30.10,SSW,196,8.0,18.0,34,0.00,,---,0.02,116.00,VWS V14.01,2013-04-25 00:30:00,
2013-04-24 19:31:00,58.4,30.2,30.10,SW,217,8.0,11.0,34,0.00,,---,0.02,111.00,VWS V14.01,2013-04-25 00:31:00,
2013-04-24 19:36:00,58.3,30.8,30.10,South,185,10.0,12.0,35,0.00,,---,0.02,42.00,VWS V14.01,2013-04-25 00:36:00,
2013-04-24 19:41:00,57.8,30.4,30.10,SW,217,10.0,14.0,35,0.00,,---,0.02,47.00,VWS V14.01,2013-04-25 00:41:00,
2013-04-24 19:46:00,57.5,30.8,30.10,SSW,211,4.0,14.0,36,0.00,,---,0.02,40.00,VWS V14.01,2013-04-25 00:46:00,
2013-04-24 19:51:00,57.2,30.5,30.10,SSW,198,9.0,14.0,36,0.00,,---,0.02,28.00,VWS V14.01,2013-04-25 00:51:00,
2013-04-24 19:56:00,56.9,30.2,30.10,SSW,197,6.0,14.0,36,0.00,,---,0.02,19.00,VWS V14.01,2013-04-25 00:56:00,
2013-04-24 20:00:00,56.6,30.6,30.10,SSW,194,8.0,14.0,37,0.00,,---,0.02,21.00,VWS V14.01,2013-04-25 01:00:00,
2013-04-24 20:01:00,56.6,30.6,30.10,South,190,5.0,7.0,37,0.00,,---,0.02,18.00,VWS V14.01,2013-04-25 01:01:00,
2013-04-24 20:06:00,56.2,31.0,30.10,South,191,8.0,8.0,38,0.00,,---,0.02,12.00,VWS V14.01,2013-04-25 01:06:00,
2013-04-24 20:11:00,56.0,30.8,30.09,SSW,207,1.0,9.0,38,0.00,,---,0.02,9.00,VWS V14.01,2013-04-25 01:11:00,
2013-04-24 20:16:00,55.7,31.1,30.10,South,187,7.0,9.0,39,0.00,,---,0.02,5.00,VWS V14.01,2013-04-25 01:16:00,
2013-04-24 20:21:00,55.6,31.1,30.10,South,191,8.0,9.0,39,0.00,,---,0.02,0.00,VWS V14.01,2013-04-25 01:21:00,
2013-04-24 20:26:00,55.4,31.5,30.10,SSW,206,8.0,9.0,40,0.00,,---,0.02,0.00,VWS V14.01,2013-04-25 01:26:00,
2013-04-24 20:30:00,55.1,31.2,30.10,South,183,2.0,9.0,40,0.00,,---,0.02,0.00,VWS V14.01,2013-04-25 01:30:00,
2013-04-24 20:31:00,55.1,31.2,30.10,South,184,6.0,6.0,40,0.00,,---,0.02,0.00,VWS V14.01,2013-04-25 01:31:00,
2013-04-24 20:36:00,54.8,31.6,30.10,SSW,206,9.0,11.0,41,0.00,,---,0.02,0.00,VWS V14.01,2013-04-25 01:36:00,
2013-04-24 20:41:00,54.5,31.3,30.10,SSW,203,4.0,11.0,41,0.00,,---,0.02,0.00,VWS V14.01,2013-04-25 01:41:00,
2013-04-24 20:46:00,54.2,31.0,30.10,SSW,198,7.0,11.0,41,0.00,,---,0.02,0.00,VWS V14.01,2013-04-25 01:46:00,
2013-04-24 20:52:00,53.8,31.3,30.11,South,171,4.0,11.0,42,0.00,,---,0.02,0.00,VWS V14.01,2013-04-25 01:52:00,
2013-04-24 20:57:00,53.5,32.1,30.11,South,179,7.0,11.0,44,0.00,,---,0.02,0.00,VWS V14.01,2013-04-25 01:57:00,
2013-04-24 21:00:00,53.2,32.4,30.11,South,173,7.0,11.0,45,0.00,,---,0.02,0.00,VWS V14.01,2013-04-25 02:00:00,
2013-04-24 21:02:00,53.1,32.3,30.11,South,186,8.0,8.0,45,0.00,,---,0.02,0.00,VWS V14.01,2013-04-25 02:02:00,
2013-04-24 21:07:00,52.8,32.6,30.11,South,188,6.0,8.0,46,0.00,,---,0.02,0.00,VWS V14.01,2013-04-25 02:07:00,
2013-04-24 21:12:00,52.3,32.7,30.11,South,188,3.0,8.0,47,0.00,,---,0.02,0.00,VWS V14.01,2013-04-25 02:12:00,
2013-04-24 21:17:00,51.9,32.8,30.12,South,191,5.0,8.0,48,0.00,,---,0.02,0.00,VWS V14.01,2013-04-25 02:17:00,
2013-04-24 21:22:00,51.6,33.1,30.12,South,191,4.0,8.0,49,0.00,,---,0.02,0.00,VWS V14.01,2013-04-25 02:22:00,
2013-04-24 21:27:00,51.4,32.9,30.12,South,191,2.0,8.0,49,0.00,,---,0.02,0.00,VWS V14.01,2013-04-25 02:27:00,
2013-04-24 21:30:00,51.3,32.8,30.13,South,191,2.0,8.0,49,0.00,,---,0.02,0.00,VWS V14.01,2013-04-25 02:30:00,
2013-04-24 21:32:00,51.1,32.6,30.12,SSW,203,4.0,5.0,49,0.00,,---,0.02,0.00,VWS V14.01,2013-04-25 02:32:00,
2013-04-24 21:37:00,51.1,32.6,30.13,SSW,210,3.0,6.0,49,0.00,,---,0.02,0.00,VWS V14.01,2013-04-25 02:37:00,
2013-04-24 21:42:00,50.8,32.3,30.14,West,273,4.0,6.0,49,0.00,,---,0.02,0.00,VWS V14.01,2013-04-25 02:42:00,
2013-04-24 21:47:00,50.5,32.6,30.15,NW,319,9.0,9.0,50,0.00,,---,0.02,0.00,VWS V14.01,2013-04-25 02:47:00,
2013-04-24 21:52:00,49.9,33.0,30.15,NW,313,2.0,9.0,52,0.00,,---,0.02,0.00,VWS V14.01,2013-04-25 02:52:00,
2013-04-24 21:57:00,49.9,33.0,30.15,WSW,251,4.0,9.0,52,0.00,,---,0.02,0.00,VWS V14.01,2013-04-25 02:57:00,
2013-04-24 22:00:00,49.9,33.0,30.15,SW,225,4.0,9.0,52,0.00,,---,0.02,0.00,VWS V14.01,2013-04-25 03:00:00,
2013-04-24 22:02:00,49.9,32.5,30.15,SSW,207,7.0,9.0,51,0.00,,---,0.02,0.00,VWS V14.01,2013-04-25 03:02:00,
2013-04-24 22:07:00,49.9,33.0,30.16,SSW,207,2.0,9.0,52,0.00,,---,0.02,0.00,VWS V14.01,2013-04-25 03:07:00,
2013-04-24 22:12:00,49.8,32.9,30.16,NW,317,3.0,9.0,52,0.00,,---,0.02,0.00,VWS V14.01,2013-04-25 03:12:00,
2013-04-24 22:17:00,49.8,32.9,30.16,NW,317,2.0,9.0,52,0.00,,---,0.02,0.00,VWS V14.01,2013-04-25 03:17:00,
2013-04-24 22:22:00,49.9,32.5,30.17,NNW,333,4.0,9.0,51,0.00,,---,0.02,0.00,VWS V14.01,2013-04-25 03:22:00,
2013-04-24 22:27:00,49.8,32.4,30.17,NNW,332,4.0,9.0,51,0.00,,---,0.02,0.00,VWS V14.01,2013-04-25 03:27:00,
2013-04-24 22:30:00,49.8,32.9,30.17,SW,230,3.0,9.0,52,0.00,,---,0.02,0.00,VWS V14.01,2013-04-25 03:30:00,
2013-04-24 22:32:00,49.6,32.7,30.17,West,263,3.0,3.0,52,0.00,,---,0.02,0.00,VWS V14.01,2013-04-25 03:32:00,
2013-04-24 22:37:00,49.4,32.5,30.17,NW,311,0.0,4.0,52,0.00,,---,0.02,0.00,VWS V14.01,2013-04-25 03:37:00,
2013-04-24 22:42:00,49.1,32.7,30.17,NW,311,2.0,4.0,53,0.00,,---,0.02,0.00,VWS V14.01,2013-04-25 03:42:00,
2013-04-24 22:47:00,48.8,32.9,30.18,NW,311,3.0,4.0,54,0.00,,---,0.02,0.00,VWS V14.01,2013-04-25 03:47:00,
2013-04-24 22:52:00,48.2,32.8,30.18,NW,309,2.0,4.0,55,0.00,,---,0.02,0.00,VWS V14.01,2013-04-25 03:52:00,
2013-04-24 22:57:00,48.3,32.9,30.18,NW,309,1.0,4.0,55,0.00,,---,0.02,0.00,VWS V14.01,2013-04-25 03:57:00,
2013-04-24 23:00:00,48.3,32.9,30.18,NW,309,2.0,4.0,55,0.00,,---,0.02,0.00,VWS V14.01,2013-04-25 04:00:00,
2013-04-24 23:01:00,48.3,32.9,30.18,NW,309,0.0,3.0,55,0.00,,---,0.02,0.00,VWS V14.01,2013-04-25 04:01:00,
2013-04-24 23:06:00,48.2,33.3,30.19,NW,309,2.0,4.0,56,0.00,,---,0.02,0.00,VWS V14.01,2013-04-25 04:06:00,
2013-04-24 23:11:00,48.6,32.3,30.19,NNW,342,6.0,7.0,53,0.00,,---,0.02,0.00,VWS V14.01,2013-04-25 04:11:00,
2013-04-24 23:16:00,49.4,32.0,30.19,North,350,9.0,9.0,51,0.00,,---,0.02,0.00,VWS V14.01,2013-04-25 04:16:00,
2013-04-24 23:21:00,49.6,31.7,30.19,NNE,19,6.0,10.0,50,0.00,,---,0.02,0.00,VWS V14.01,2013-04-25 04:21:00,
2013-04-24 23:26:00,49.4,32.0,30.20,NNE,15,8.0,10.0,51,0.00,,---,0.02,0.00,VWS V14.01,2013-04-25 04:26:00,
2013-04-24 23:30:00,49.5,31.6,30.20,NNE,20,9.0,10.0,50,0.00,,---,0.02,0.00,VWS V14.01,2013-04-25 04:30:00,
2013-04-24 23:31:00,49.4,31.6,30.20,NNE,26,5.0,9.0,50,0.00,,---,0.02,0.00,VWS V14.01,2013-04-25 04:31:00,
2013-04-24 23:36:00,49.4,31.6,30.20,North,11,6.0,9.0,50,0.00,,---,0.02,0.00,VWS V14.01,2013-04-25 04:36:00,
2013-04-24 23:41:00,49.2,31.4,30.20,NNE,22,7.0,10.0,50,0.00,,---,0.02,0.00,VWS V14.01,2013-04-25 04:41:00,
2013-04-24 23:46:00,49.1,31.8,30.20,NNE,28,4.0,10.0,51,0.00,,---,0.02,0.00,VWS V14.01,2013-04-25 04:46:00,
2013-04-24 23:51:00,48.8,31.5,30.20,NNE,28,6.0,10.0,51,0.00,,---,0.02,0.00,VWS V14.01,2013-04-25 04:51:00,
2013-04-24 23:56:00,48.6,31.3,30.20,NNE,28,3.0,10.0,51,0.00,,---,0.02,0.00,VWS V14.01,2013-04-25 04:56:00,